Time,TemperatureF,DewpointF,PressureIn,WindDirection,WindDirectionDegrees,WindSpeedMPH,WindSpeedGustMPH,Humidity,HourlyPrecipIn,Conditions,Clouds,dailyrainin,SoftwareType,DateUTC
2013-02-22 00:02:00,23.0,20.0,-100.00,ESE,110,10.0,20.0,88,-99.99,,,-99.99,,2013-02-22 05:02:00,
2013-02-22 00:12:00,23.0,20.0,-100.00,ESE,110,10.0,20.0,88,-99.99,,,-99.99,,2013-02-22 05:12:00,
2013-02-22 00:22:00,24.0,21.0,-100.00,ESE,115,9.0,14.0,88,-99.99,,,-99.99,,2013-02-22 05:22:00,
2013-02-22 00:32:00,24.0,21.0,-100.00,East,85,9.0,14.0,88,-99.99,,,-99.99,,2013-02-22 05:32:00,
2013-02-22 00:42:00,24.0,21.0,-100.00,ESE,105,11.0,19.0,89,-99.99,,,-99.99,,2013-02-22 05:42:00,
2013-02-22 00:52:00,24.0,21.0,-100.00,East,90,10.0,19.0,89,-99.99,,,-99.99,,2013-02-22 05:52:00,
2013-02-22 01:02:00,24.0,21.0,-100.00,East,95,10.0,19.0,89,-99.99,,,-99.99,,2013-02-22 06:02:00,
2013-02-22 01:12:00,24.0,21.0,-100.00,East,95,10.0,19.0,89,-99.99,,,-99.99,,2013-02-22 06:12:00,
2013-02-22 01:22:00,24.0,21.0,-100.00,ESE,115,7.0,17.0,89,-99.99,,,-99.99,,2013-02-22 06:22:00,
2013-02-22 01:32:00,24.0,21.0,-100.00,East,95,8.0,18.0,90,-99.99,,,-99.99,,2013-02-22 06:32:00,
2013-02-22 01:42:00,24.0,21.0,-100.00,East,95,8.0,18.0,90,-99.99,,,-99.99,,2013-02-22 06:42:00,
2013-02-22 01:52:00,24.0,21.0,-100.00,ESE,105,10.0,19.0,90,-99.99,,,-99.99,,2013-02-22 06:52:00,
2013-02-22 02:01:00,24.0,21.0,-100.00,East,100,7.0,16.0,90,-99.99,,,-99.99,,2013-02-22 07:01:00,
2013-02-22 02:11:00,24.0,21.0,-100.00,East,95,6.0,15.0,90,-99.99,,,-99.99,,2013-02-22 07:11:00,
2013-02-22 02:22:00,24.0,21.0,-100.00,East,95,6.0,15.0,90,-99.99,,,-99.99,,2013-02-22 07:22:00,
2013-02-22 02:32:00,24.0,21.0,-100.00,East,80,7.0,17.0,90,-99.99,,,-99.99,,2013-02-22 07:32:00,
2013-02-22 02:42:00,24.0,21.0,-100.00,ESE,110,9.0,21.0,90,-99.99,,,-99.99,,2013-02-22 07:42:00,
2013-02-22 02:51:00,24.0,21.0,-100.00,ESE,110,9.0,21.0,90,-99.99,,,-99.99,,2013-02-22 07:51:00,
2013-02-22 03:01:00,24.0,21.0,-100.00,ESE,110,9.0,21.0,90,-99.99,,,-99.99,,2013-02-22 08:01:00,
2013-02-22 03:11:00,24.0,21.0,-100.00,East,85,9.0,17.0,90,-99.99,,,-99.99,,2013-02-22 08:11:00,
2013-02-22 03:21:00,24.0,21.0,-100.00,ESE,105,12.0,21.0,90,-99.99,,,-99.99,,2013-02-22 08:21:00,
2013-02-22 03:32:00,24.0,21.0,-100.00,East,85,11.0,21.0,90,-99.99,,,-99.99,,2013-02-22 08:32:00,
2013-02-22 03:42:00,24.0,21.0,-100.00,East,80,11.0,20.0,90,-99.99,,,-99.99,,2013-02-22 08:42:00,
2013-02-22 03:52:00,24.0,22.0,-100.00,East,90,11.0,17.0,90,-99.99,,,-99.99,,2013-02-22 08:52:00,
2013-02-22 04:03:00,24.0,22.0,-100.00,ENE,75,11.0,21.0,90,-99.99,,,-99.99,,2013-02-22 09:03:00,
2013-02-22 04:11:00,24.0,21.0,-100.00,East,90,14.0,18.0,91,-99.99,,,-99.99,,2013-02-22 09:11:00,
2013-02-22 04:21:00,24.0,22.0,-100.00,ENE,70,11.0,21.0,91,-99.99,,,-99.99,,2013-02-22 09:21:00,
2013-02-22 04:32:00,24.0,22.0,-100.00,East,95,10.0,21.0,91,-99.99,,,-99.99,,2013-02-22 09:32:00,
2013-02-22 04:42:00,24.0,22.0,-100.00,East,95,6.0,20.0,91,-99.99,,,-99.99,,2013-02-22 09:42:00,
2013-02-22 04:51:00,24.0,22.0,-100.00,ESE,105,9.0,17.0,91,-99.99,,,-99.99,,2013-02-22 09:51:00,
2013-02-22 05:01:00,24.0,22.0,-100.00,ENE,75,13.0,18.0,91,-99.99,,,-99.99,,2013-02-22 10:01:00,
2013-02-22 05:11:00,24.0,22.0,-100.00,East,85,9.0,20.0,92,-99.99,,,-99.99,,2013-02-22 10:11:00,
2013-02-22 05:21:00,24.0,22.0,-100.00,East,85,12.0,21.0,93,-99.99,,,-99.99,,2013-02-22 10:21:00,
2013-02-22 05:32:00,24.0,22.0,-100.00,ESE,110,7.0,22.0,94,-99.99,,,-99.99,,2013-02-22 10:32:00,
2013-02-22 05:42:00,24.0,22.0,-100.00,East,95,13.0,24.0,94,-99.99,,,-99.99,,2013-02-22 10:42:00,
2013-02-22 05:51:00,24.0,22.0,-100.00,East,100,10.0,21.0,94,-99.99,,,-99.99,,2013-02-22 10:51:00,
2013-02-22 06:01:00,24.0,22.0,-100.00,East,95,9.0,21.0,95,-99.99,,,-99.99,,2013-02-22 11:01:00,
2013-02-22 06:11:00,24.0,23.0,-100.00,ESE,105,8.0,21.0,96,-99.99,,,-99.99,,2013-02-22 11:11:00,
2013-02-22 06:21:00,23.0,23.0,-100.00,East,85,9.0,17.0,96,-99.99,,,-99.99,,2013-02-22 11:21:00,
2013-02-22 06:32:00,23.0,23.0,-100.00,East,85,13.0,24.0,97,-99.99,,,-99.99,,2013-02-22 11:32:00,
2013-02-22 06:42:00,24.0,23.0,-100.00,East,90,9.0,16.0,97,-99.99,,,-99.99,,2013-02-22 11:42:00,
2013-02-22 06:52:00,23.0,23.0,-100.00,East,90,12.0,19.0,98,-99.99,,,-99.99,,2013-02-22 11:52:00,
2013-02-22 07:02:00,23.0,23.0,-100.00,ENE,75,11.0,21.0,98,-99.99,,,-99.99,,2013-02-22 12:02:00,
2013-02-22 07:11:00,24.0,23.0,-100.00,East,85,8.0,20.0,99,-99.99,,,-99.99,,2013-02-22 12:11:00,
2013-02-22 07:22:00,24.0,24.0,-100.00,East,80,9.0,20.0,99,-99.99,,,-99.99,,2013-02-22 12:22:00,
2013-02-22 07:32:00,24.0,24.0,-100.00,East,90,7.0,17.0,99,-99.99,,,-99.99,,2013-02-22 12:32:00,
2013-02-22 07:42:00,24.0,24.0,-100.00,East,85,10.0,19.0,100,-99.99,,,-99.99,,2013-02-22 12:42:00,
2013-02-22 07:52:00,24.0,24.0,-100.00,East,90,11.0,18.0,99,-99.99,,,-99.99,,2013-02-22 12:52:00,
2013-02-22 08:02:00,24.0,24.0,-100.00,ENE,65,9.0,16.0,99,-99.99,,,-99.99,,2013-02-22 13:02:00,
2013-02-22 08:11:00,24.0,24.0,-100.00,ENE,65,9.0,16.0,99,-99.99,,,-99.99,,2013-02-22 13:11:00,
2013-02-22 08:22:00,25.0,25.0,-100.00,East,90,10.0,14.0,100,-99.99,,,-99.99,,2013-02-22 13:22:00,
2013-02-22 08:32:00,25.0,25.0,-100.00,East,90,7.0,14.0,99,-99.99,,,-99.99,,2013-02-22 13:32:00,
2013-02-22 08:42:00,26.0,26.0,-100.00,East,80,7.0,12.0,100,-99.99,,,-99.99,,2013-02-22 13:42:00,
2013-02-22 08:52:00,26.0,26.0,-100.00,East,95,6.0,13.0,100,-99.99,,,-99.99,,2013-02-22 13:52:00,
2013-02-22 09:01:00,26.0,26.0,-100.00,East,90,6.0,10.0,99,-99.99,,,-99.99,,2013-02-22 14:01:00,
2013-02-22 09:11:00,26.0,26.0,-100.00,East,85,6.0,9.0,99,-99.99,,,-99.99,,2013-02-22 14:11:00,
2013-02-22 09:21:00,26.0,26.0,-100.00,East,90,6.0,12.0,99,-99.99,,,-99.99,,2013-02-22 14:21:00,
2013-02-22 09:32:00,26.0,26.0,-100.00,East,90,7.0,13.0,99,-99.99,,,-99.99,,2013-02-22 14:32:00,
2013-02-22 09:42:00,26.0,26.0,-100.00,East,100,6.0,13.0,99,-99.99,,,-99.99,,2013-02-22 14:42:00,
2013-02-22 09:52:00,27.0,27.0,-100.00,East,100,9.0,12.0,100,-99.99,,,-99.99,,2013-02-22 14:52:00,
2013-02-22 10:02:00,27.0,27.0,-100.00,East,95,7.0,12.0,99,-99.99,,,-99.99,,2013-02-22 15:02:00,
2013-02-22 10:11:00,27.0,27.0,-100.00,ESE,105,4.0,9.0,99,-99.99,,,-99.99,,2013-02-22 15:11:00,
2013-02-22 10:22:00,28.0,28.0,-100.00,East,90,9.0,11.0,99,-99.99,,,-99.99,,2013-02-22 15:22:00,
2013-02-22 10:32:00,28.0,28.0,-100.00,East,100,6.0,11.0,99,-99.99,,,-99.99,,2013-02-22 15:32:00,
2013-02-22 10:42:00,28.0,28.0,-100.00,East,85,6.0,10.0,99,-99.99,,,-99.99,,2013-02-22 15:42:00,
2013-02-22 10:52:00,28.0,28.0,-100.00,ESE,105,6.0,10.0,99,-99.99,,,-99.99,,2013-02-22 15:52:00,
2013-02-22 11:02:00,28.0,28.0,-100.00,East,90,6.0,11.0,99,-99.99,,,-99.99,,2013-02-22 16:02:00,
2013-02-22 11:12:00,28.0,28.0,-100.00,SE,130,3.0,9.0,99,-99.99,,,-99.99,,2013-02-22 16:12:00,
2013-02-22 11:22:00,29.0,29.0,-100.00,East,95,6.0,10.0,99,-99.99,,,-99.99,,2013-02-22 16:22:00,
2013-02-22 11:32:00,29.0,29.0,-100.00,ESE,105,6.0,11.0,99,-99.99,,,-99.99,,2013-02-22 16:32:00,
2013-02-22 11:42:00,29.0,29.0,-100.00,ESE,115,3.0,9.0,99,-99.99,,,-99.99,,2013-02-22 16:42:00,
2013-02-22 11:52:00,30.0,30.0,-100.00,SE,135,4.0,7.0,99,-99.99,,,-99.99,,2013-02-22 16:52:00,
2013-02-22 12:01:00,30.0,30.0,-100.00,ESE,110,6.0,8.0,99,-99.99,,,-99.99,,2013-02-22 17:01:00,
2013-02-22 12:11:00,30.0,30.0,-100.00,ESE,120,4.0,9.0,99,-99.99,,,-99.99,,2013-02-22 17:11:00,
2013-02-22 12:21:00,30.0,30.0,-100.00,ESE,120,2.0,7.0,99,-99.99,,,-99.99,,2013-02-22 17:21:00,
2013-02-22 12:32:00,30.0,30.0,-100.00,SSE,160,2.0,7.0,99,-99.99,,,-99.99,,2013-02-22 17:32:00,
2013-02-22 12:42:00,31.0,31.0,-100.00,SE,135,2.0,6.0,99,-99.99,,,-99.99,,2013-02-22 17:42:00,
2013-02-22 12:52:00,31.0,31.0,-100.00,SSE,150,3.0,6.0,99,-99.99,,,-99.99,,2013-02-22 17:52:00,
2013-02-22 13:02:00,31.0,31.0,-100.00,SE,125,2.0,6.0,99,-99.99,,,-99.99,,2013-02-22 18:02:00,
2013-02-22 13:12:00,31.0,31.0,-100.00,SE,140,2.0,7.0,99,-99.99,,,-99.99,,2013-02-22 18:12:00,
2013-02-22 13:22:00,31.0,31.0,-100.00,ESE,120,3.0,7.0,99,-99.99,,,-99.99,,2013-02-22 18:22:00,
2013-02-22 13:32:00,32.0,32.0,-100.00,SE,140,3.0,6.0,99,-99.99,,,-99.99,,2013-02-22 18:32:00,
2013-02-22 13:42:00,32.0,32.0,-100.00,South,180,4.0,6.0,99,-99.99,,,-99.99,,2013-02-22 18:42:00,
2013-02-22 13:51:00,32.0,32.0,-100.00,SSE,150,4.0,5.0,99,-99.99,,,-99.99,,2013-02-22 18:51:00,
2013-02-22 14:01:00,33.0,33.0,-100.00,South,175,3.0,6.0,99,-99.99,,,-99.99,,2013-02-22 19:01:00,
2013-02-22 14:11:00,33.0,33.0,-100.00,South,175,3.0,6.0,99,-99.99,,,-99.99,,2013-02-22 19:11:00,
2013-02-22 14:21:00,33.0,33.0,-100.00,South,175,2.0,6.0,99,-99.99,,,-99.99,,2013-02-22 19:21:00,
2013-02-22 14:31:00,33.0,33.0,-100.00,South,180,2.0,5.0,99,-99.99,,,-99.99,,2013-02-22 19:31:00,
2013-02-22 14:41:00,33.0,33.0,-100.00,SSE,165,2.0,6.0,100,-99.99,,,-99.99,,2013-02-22 19:41:00,
2013-02-22 14:52:00,33.0,33.0,-100.00,SSE,165,3.0,6.0,99,-99.99,,,-99.99,,2013-02-22 19:52:00,
2013-02-22 15:01:00,34.0,34.0,-100.00,South,170,2.0,6.0,99,-99.99,,,-99.99,,2013-02-22 20:01:00,
2013-02-22 15:11:00,34.0,34.0,-100.00,South,180,4.0,6.0,100,-99.99,,,-99.99,,2013-02-22 20:11:00,
2013-02-22 15:21:00,34.0,34.0,-100.00,South,190,3.0,6.0,100,-99.99,,,-99.99,,2013-02-22 20:21:00,
2013-02-22 15:32:00,34.0,34.0,-100.00,WNW,300,2.0,6.0,99,-99.99,,,-99.99,,2013-02-22 20:32:00,
2013-02-22 15:41:00,34.0,34.0,-100.00,South,185,4.0,6.0,99,-99.99,,,-99.99,,2013-02-22 20:41:00,
2013-02-22 15:52:00,34.0,34.0,-100.00,South,185,3.0,7.0,100,-99.99,,,-99.99,,2013-02-22 20:52:00,
2013-02-22 16:02:00,34.0,34.0,-100.00,SSW,195,4.0,6.0,100,-99.99,,,-99.99,,2013-02-22 21:02:00,
2013-02-22 16:11:00,35.0,35.0,-100.00,SSW,205,5.0,7.0,99,-99.99,,,-99.99,,2013-02-22 21:11:00,
2013-02-22 16:21:00,35.0,35.0,-100.00,SSW,205,4.0,6.0,99,-99.99,,,-99.99,,2013-02-22 21:21:00,
2013-02-22 16:32:00,35.0,35.0,-100.00,SSW,200,4.0,6.0,100,-99.99,,,-99.99,,2013-02-22 21:32:00,
2013-02-22 16:42:00,35.0,35.0,-100.00,SW,215,3.0,6.0,99,-99.99,,,-99.99,,2013-02-22 21:42:00,
2013-02-22 16:52:00,35.0,35.0,-100.00,SSW,205,2.0,7.0,99,-99.99,,,-99.99,,2013-02-22 21:52:00,
2013-02-22 17:01:00,35.0,35.0,-100.00,SSW,205,3.0,4.0,99,-99.99,,,-99.99,,2013-02-22 22:01:00,
2013-02-22 17:11:00,35.0,35.0,-100.00,WSW,245,2.0,6.0,99,-99.99,,,-99.99,,2013-02-22 22:11:00,
2013-02-22 17:21:00,36.0,36.0,-100.00,SW,220,4.0,6.0,99,-99.99,,,-99.99,,2013-02-22 22:21:00,
2013-02-22 17:32:00,36.0,36.0,-100.00,WSW,245,4.0,7.0,99,-99.99,,,-99.99,,2013-02-22 22:32:00,
2013-02-22 17:42:00,36.0,36.0,-100.00,SW,230,6.0,9.0,99,-99.99,,,-99.99,,2013-02-22 22:42:00,
2013-02-22 17:51:00,36.0,36.0,-100.00,SW,225,4.0,9.0,99,-99.99,,,-99.99,,2013-02-22 22:51:00,
2013-02-22 18:01:00,36.0,36.0,-100.00,WSW,245,6.0,8.0,99,-99.99,,,-99.99,,2013-02-22 23:01:00,
2013-02-22 18:11:00,36.0,36.0,-100.00,SW,225,6.0,9.0,99,-99.99,,,-99.99,,2013-02-22 23:11:00,
2013-02-22 18:21:00,36.0,36.0,-100.00,SSW,210,4.0,10.0,100,-99.99,,,-99.99,,2013-02-22 23:21:00,
2013-02-22 18:32:00,36.0,36.0,-100.00,SSW,210,4.0,10.0,100,-99.99,,,-99.99,,2013-02-22 23:32:00,
2013-02-22 18:42:00,36.0,36.0,-100.00,SW,225,7.0,11.0,99,-99.99,,,-99.99,,2013-02-22 23:42:00,
2013-02-22 18:52:00,36.0,36.0,-100.00,SW,230,7.0,12.0,99,-99.99,,,-99.99,,2013-02-22 23:52:00,
2013-02-22 19:02:00,36.0,36.0,-100.00,SW,230,7.0,12.0,100,-99.99,,,-99.99,,2013-02-23 00:02:00,
2013-02-22 19:11:00,36.0,36.0,-100.00,SW,220,9.0,14.0,99,-99.99,,,-99.99,,2013-02-23 00:11:00,
2013-02-22 19:21:00,36.0,36.0,-100.00,SSW,210,6.0,12.0,99,-99.99,,,-99.99,,2013-02-23 00:21:00,
2013-02-22 19:32:00,36.0,36.0,-100.00,SW,235,6.0,13.0,99,-99.99,,,-99.99,,2013-02-23 00:32:00,
2013-02-22 19:42:00,36.0,36.0,-100.00,SSW,210,6.0,10.0,99,-99.99,,,-99.99,,2013-02-23 00:42:00,
2013-02-22 19:51:00,36.0,36.0,-100.00,SSW,210,6.0,10.0,99,-99.99,,,-99.99,,2013-02-23 00:51:00,
2013-02-22 20:01:00,36.0,36.0,-100.00,SW,215,8.0,15.0,99,-99.99,,,-99.99,,2013-02-23 01:01:00,
2013-02-22 20:11:00,35.0,35.0,-100.00,SW,225,6.0,11.0,99,-99.99,,,-99.99,,2013-02-23 01:11:00,
2013-02-22 20:21:00,35.0,35.0,-100.00,SW,220,7.0,13.0,99,-99.99,,,-99.99,,2013-02-23 01:21:00,
2013-02-22 20:32:00,35.0,35.0,-100.00,WSW,245,6.0,12.0,100,-99.99,,,-99.99,,2013-02-23 01:32:00,
2013-02-22 20:42:00,35.0,35.0,-100.00,SW,225,7.0,11.0,100,-99.99,,,-99.99,,2013-02-23 01:42:00,
2013-02-22 20:51:00,35.0,35.0,-100.00,SW,215,6.0,14.0,99,-99.99,,,-99.99,,2013-02-23 01:51:00,
2013-02-22 21:01:00,35.0,35.0,-100.00,SW,230,7.0,12.0,100,-99.99,,,-99.99,,2013-02-23 02:01:00,
2013-02-22 21:11:00,35.0,35.0,-100.00,SW,220,7.0,9.0,99,-99.99,,,-99.99,,2013-02-23 02:11:00,
2013-02-22 21:21:00,35.0,35.0,-100.00,SW,220,7.0,12.0,99,-99.99,,,-99.99,,2013-02-23 02:21:00,
2013-02-22 21:32:00,35.0,35.0,-100.00,SW,220,6.0,11.0,99,-99.99,,,-99.99,,2013-02-23 02:32:00,
2013-02-22 21:42:00,35.0,35.0,-100.00,SW,220,9.0,14.0,99,-99.99,,,-99.99,,2013-02-23 02:42:00,
2013-02-22 21:52:00,35.0,35.0,-100.00,WSW,240,10.0,16.0,99,-99.99,,,-99.99,,2013-02-23 02:52:00,
2013-02-22 22:02:00,35.0,35.0,-100.00,WSW,245,6.0,16.0,99,-99.99,,,-99.99,,2013-02-23 03:02:00,
2013-02-22 22:11:00,35.0,35.0,-100.00,SW,220,7.0,10.0,99,-99.99,,,-99.99,,2013-02-23 03:11:00,
2013-02-22 22:21:00,35.0,35.0,-100.00,WSW,240,7.0,14.0,99,-99.99,,,-99.99,,2013-02-23 03:21:00,
2013-02-22 22:32:00,35.0,35.0,-100.00,SSW,210,7.0,13.0,99,-99.99,,,-99.99,,2013-02-23 03:32:00,
2013-02-22 22:42:00,35.0,35.0,-100.00,WSW,240,8.0,14.0,99,-99.99,,,-99.99,,2013-02-23 03:42:00,
2013-02-22 22:51:00,35.0,35.0,-100.00,SW,215,6.0,11.0,99,-99.99,,,-99.99,,2013-02-23 03:51:00,
2013-02-22 23:01:00,35.0,35.0,-100.00,SW,225,4.0,11.0,99,-99.99,,,-99.99,,2013-02-23 04:01:00,
2013-02-22 23:11:00,35.0,35.0,-100.00,SW,230,6.0,11.0,98,-99.99,,,-99.99,,2013-02-23 04:11:00,
2013-02-22 23:21:00,35.0,35.0,-100.00,SW,215,4.0,12.0,98,-99.99,,,-99.99,,2013-02-23 04:21:00,
2013-02-22 23:32:00,35.0,35.0,-100.00,SW,230,4.0,9.0,98,-99.99,,,-99.99,,2013-02-23 04:32:00,
2013-02-22 23:41:00,35.0,35.0,-100.00,SW,225,4.0,9.0,98,-99.99,,,-99.99,,2013-02-23 04:41:00,
2013-02-22 23:51:00,35.0,35.0,-100.00,SW,230,5.0,7.0,98,-99.99,,,-99.99,,2013-02-23 04:51:00,